WX4SKY Weather Reports


Display with metric or nautical units.
time (UTC)temp
F
wind
direction
speed
MPH
gust
MPH
rain 1hr
in
rain 24hr
in
rain mn
in
humidity
%
barometer
mb
20260831084612 70 0 0.0 0.0 0.00 0.00 0.00 95 1021.3
20260831083105 70 0 0.0 0.0 0.00 0.00 0.00 95 1021.1
20260831081609 71 0 0.0 0.0 0.00 0.00 0.00 95 1020.9
20260831080109 71 0 0.0 0.0 0.00 0.00 0.00 94 1021.0
20260831074605 71 0 0.0 0.0 0.00 0.00 0.00 94 1020.9
20260831073108 71 0 0.0 0.0 0.00 0.00 0.00 94 1020.9
20260831071604 71 0 0.0 0.0 0.00 0.00 0.00 94 1021.0
20260831070114 71 0 0.0 0.0 0.00 0.00 0.00 94 1021.0
20260831064606 71 0 0.0 0.0 0.00 0.00 0.00 94 1021.1
20260831063104 72 0 0.0 0.0 0.00 0.00 0.00 94 1021.2
20260831061605 72 0 0.0 0.0 0.00 0.00 0.00 94 1021.0
20260831060111 72 0 0.0 0.0 0.00 0.00 0.00 94 1021.1
20260831054608 72 0 0.0 0.0 0.00 0.00 0.00 94 1021.0
20260831053104 72 0 0.0 0.0 0.00 0.00 0.00 93 1020.9
20260831051604 72 0 0.0 0.0 0.00 0.00 0.00 93 1020.9
20260831050112 72 0 0.0 0.0 0.00 0.00 0.00 93 1021.0
20260831044613 73 0 0.0 0.0 0.00 0.00 0.00 93 1021.2
20260831043106 73 0 0.0 0.0 0.00 0.00 0.00 93 1021.3
20260831041605 73 0 0.0 0.0 0.00 0.00 0.00 93 1021.3
20260831040107 73 0 0.0 0.0 0.00 0.00 0.00 92 1021.3
20260831034608 74 0 0.0 0.0 0.00 0.00 0.00 92 1021.3
20260831033107 74 0 0.0 0.0 0.00 0.00 0.00 92 1021.6
20260831031607 74 0 0.0 0.0 0.00 0.00 0.00 91 1021.7
20260831030110 74 0 0.0 0.0 0.00 0.00 0.00 91 1021.8
20260831024626 74 0 0.0 0.0 0.00 0.00 0.00 91 1021.6
20260831023106 74 0 0.0 0.0 0.00 0.00 0.00 91 1021.4
20260831021606 75 0 0.0 0.0 0.00 0.00 0.00 90 1021.4
20260831020111 75 0 0.0 0.0 0.00 0.00 0.00 90 1021.3
20260831014624 76 0 0.0 0.0 0.00 0.00 0.00 89 1021.2
20260831013104 76 0 0.0 0.0 0.00 0.00 0.00 88 1021.2
20260831011616 77 0 0.0 0.0 0.00 0.00 0.00 87 1021.0
20260831004605 78 0 0.0 0.0 0.00 0.00 0.00 84 1020.7
20260831003104 79 0 0.0 0.0 0.00 0.00 0.00 83 1020.6
20260831001607 80 0 0.0 0.0 0.00 0.00 0.00 81 1020.6
20260831000103 81 0 0.0 0.0 0.00 0.00 0.00 78 1020.2
20260830234606 82 0 0.0 0.0 0.00 0.00 0.00 75 1020.2
20260830233106 83 0 0.0 0.0 0.00 0.00 0.00 74 1020.0
20260830231610 84 0 0.0 0.0 0.00 0.00 0.00 74 1020.2
20260830230100 85 0 0.0 0.0 0.00 0.00 0.00 73 1020.2
20260830224636 87 0 0.0 0.0 0.00 0.00 0.00 68 1020.1
20260830223059 89 0 0.0 1.0 0.00 0.00 0.00 63 1020.2
20260830221603 92 0 0.0 1.0 0.00 0.00 0.00 57 1020.1
20260830220109 90 0 0.0 2.0 0.00 0.00 0.00 62 1020.0
20260830214605 90 132 1.0 4.0 0.00 0.00 0.00 60 1020.0
20260830213103 90 0 0.0 1.0 0.00 0.00 0.00 63 1020.2
20260830211601 88 0 0.0 1.0 0.00 0.00 0.00 68 1020.3
20260830210108 89 97 1.0 2.0 0.00 0.00 0.00 62 1020.3
20260830204606 90 119 0.0 1.0 0.00 0.00 0.00 61 1020.4
20260830203103 89 0 0.0 2.0 0.00 0.00 0.00 63 1020.6
20260830201602 85 0 0.0 0.0 0.00 0.00 0.00 74 1020.6
20260830200106 84 0 0.0 1.0 0.00 0.00 0.00 75 1020.9
20260830194607 86 112 0.0 2.0 0.00 0.00 0.00 73 1021.1
20260830193102 89 99 0.0 2.0 0.00 0.00 0.00 65 1021.3
20260830191610 89 113 0.0 7.0 0.00 0.00 0.00 64 1021.3
20260830190106 89 115 2.0 5.0 0.00 0.00 0.00 61 1021.7
20260830184602 89 103 2.0 5.0 0.00 0.00 0.00 61 1021.8
20260830183101 89 0 0.0 2.0 0.00 0.00 0.00 61 1021.9
20260830181606 88 140 2.0 4.0 0.00 0.00 0.00 65 1022.0
20260830180111 87 107 1.0 4.0 0.00 0.00 0.00 67 1022.5
20260830174601 86 117 0.0 3.0 0.00 0.00 0.00 68 1022.6
20260830173117 87 0 1.0 4.0 0.00 0.00 0.00 68 1022.7
20260830171611 86 196 2.0 4.0 0.00 0.00 0.00 70 1023.0
20260830170111 85 125 1.0 5.0 0.00 0.00 0.00 70 1023.3
20260830164613 84 143 0.0 3.0 0.00 0.00 0.00 73 1023.2
20260830163102 84 75 0.0 3.0 0.00 0.00 0.00 74 1023.5
20260830161613 82 151 1.0 4.0 0.00 0.00 0.00 80 1023.8
20260830160108 82 102 2.0 4.0 0.00 0.00 0.00 79 1023.9
20260830154600 80 0 0.0 0.0 0.00 0.00 0.00 85 1024.0
20260830153103 79 0 0.0 0.0 0.00 0.00 0.00 87 1023.8
20260830151607 79 0 0.0 2.0 0.00 0.00 0.00 86 1024.0
20260830150106 80 0 0.0 0.0 0.00 0.00 0.00 86 1023.9
20260830144606 79 0 0.0 0.0 0.00 0.00 0.00 86 1023.9
20260830143113 79 0 0.0 0.0 0.00 0.00 0.00 87 1023.9
20260830141601 78 0 0.0 0.0 0.00 0.00 0.00 88 1023.9
20260830140109 77 0 0.0 0.0 0.00 0.00 0.00 90 1023.7
20260830134603 76 0 0.0 0.0 0.00 0.00 0.00 92 1023.6
20260830133107 74 0 0.0 0.0 0.00 0.00 0.00 96 1023.6
20260830131606 73 0 0.0 0.0 0.00 0.00 0.00 96 1023.6
20260830130110 72 0 0.0 0.0 0.00 0.00 0.00 96 1023.6
20260830124605 71 0 0.0 0.0 0.00 0.00 0.00 96 1023.6
20260830123125 70 0 0.0 0.0 0.00 0.00 0.00 96 1023.4
20260830121609 70 0 0.0 0.0 0.00 0.00 0.00 96 1023.2
20260830120105 69 0 0.0 0.0 0.00 0.00 0.00 96 1023.2
20260830114610 69 0 0.0 0.0 0.00 0.00 0.00 96 1022.9
20260830113108 69 0 0.0 0.0 0.00 0.00 0.00 95 1022.8
20260830111608 69 0 0.0 0.0 0.00 0.00 0.00 95 1022.5
20260830104604 69 0 0.0 0.0 0.00 0.00 0.00 95 1022.2
20260830103107 69 0 0.0 0.0 0.00 0.00 0.00 95 1022.0
20260830101608 69 0 0.0 0.0 0.00 0.00 0.00 95 1021.8
20260830100106 69 0 0.0 0.0 0.00 0.00 0.00 95 1021.7
20260830094601 70 0 0.0 0.0 0.00 0.00 0.00 95 1021.7
20260830093114 70 0 0.0 0.0 0.00 0.00 0.00 95 1021.6
20260830091604 70 0 0.0 0.0 0.00 0.00 0.00 95 1021.7
20260830090107 70 0 0.0 0.0 0.00 0.00 0.00 95 1021.7